Time,TemperatureF,DewpointF,PressureIn,WindDirection,WindDirectionDegrees,WindSpeedMPH,WindSpeedGustMPH,Humidity,HourlyPrecipIn,Conditions,Clouds,dailyrainin,SoftwareType,DateUTC
2013-03-23 00:00:00,29.0,19.0,30.05,NE,40,2.0,7.0,67,0.00,,,0.00,weatherlink.com 1.10,2013-03-23 05:00:00,
2013-03-23 00:15:00,29.2,19.0,30.05,ENE,66,3.0,6.0,67,0.00,,,0.00,weatherlink.com 1.10,2013-03-23 05:15:00,
2013-03-23 00:30:00,29.0,20.0,30.06,ENE,72,2.0,5.0,69,0.00,,,0.00,weatherlink.com 1.10,2013-03-23 05:30:00,
2013-03-23 00:45:00,28.7,19.0,30.07,NE,49,0.0,4.0,68,0.00,,,0.00,weatherlink.com 1.10,2013-03-23 05:45:00,
2013-03-23 01:00:00,28.5,19.0,30.06,NE,55,3.0,3.0,68,0.00,,,0.00,weatherlink.com 1.10,2013-03-23 06:00:00,
2013-03-23 01:15:00,28.8,19.0,30.06,NE,43,2.0,4.0,68,0.00,,,0.00,weatherlink.com 1.10,2013-03-23 06:15:00,
2013-03-23 01:30:00,28.8,19.0,30.07,NE,55,0.0,4.0,67,0.00,,,0.00,weatherlink.com 1.10,2013-03-23 06:30:00,
2013-03-23 01:45:00,28.6,20.0,30.07,ENE,64,3.0,3.0,69,0.00,,,0.00,weatherlink.com 1.10,2013-03-23 06:45:00,
2013-03-23 02:00:00,28.1,21.0,30.07,ENE,64,0.0,1.0,74,0.00,,,0.00,weatherlink.com 1.10,2013-03-23 07:00:00,
2013-03-23 02:15:00,27.6,21.0,30.08,ENE,64,0.0,0.0,76,0.00,,,0.00,weatherlink.com 1.10,2013-03-23 07:15:00,
2013-03-23 02:30:00,27.6,20.0,30.07,ENE,64,0.0,0.0,74,0.00,,,0.00,weatherlink.com 1.10,2013-03-23 07:30:00,
2013-03-23 02:45:00,27.8,20.0,30.07,ENE,64,0.0,0.0,71,0.00,,,0.00,weatherlink.com 1.10,2013-03-23 07:45:00,
2013-03-23 03:00:00,27.9,20.0,30.07,ENE,64,0.0,0.0,71,0.00,,,0.00,weatherlink.com 1.10,2013-03-23 08:00:00,
2013-03-23 03:15:00,28.0,20.0,30.07,ENE,64,0.0,2.0,71,0.00,,,0.00,weatherlink.com 1.10,2013-03-23 08:15:00,
2013-03-23 03:30:00,28.1,20.0,30.07,ENE,64,0.0,1.0,72,0.00,,,0.00,weatherlink.com 1.10,2013-03-23 08:30:00,
2013-03-23 03:45:00,28.1,20.0,30.06,ENE,64,0.0,2.0,72,0.00,,,0.00,weatherlink.com 1.10,2013-03-23 08:45:00,
2013-03-23 04:00:00,28.1,20.0,30.06,NE,41,0.0,3.0,72,0.00,,,0.00,weatherlink.com 1.10,2013-03-23 09:00:00,
2013-03-23 04:15:00,27.7,20.0,30.06,NE,42,0.0,1.0,73,0.00,,,0.00,weatherlink.com 1.10,2013-03-23 09:15:00,
2013-03-23 04:30:00,27.0,20.0,30.07,NE,41,0.0,1.0,76,0.00,,,0.00,weatherlink.com 1.10,2013-03-23 09:30:00,
2013-03-23 04:45:00,26.7,20.0,30.06,NE,41,1.0,2.0,76,0.00,,,0.00,weatherlink.com 1.10,2013-03-23 09:45:00,
2013-03-23 05:00:00,26.5,20.0,30.06,NE,53,1.0,3.0,75,0.00,,,0.00,weatherlink.com 1.10,2013-03-23 10:00:00,
2013-03-23 05:15:00,26.5,19.0,30.06,ENE,63,0.0,3.0,74,0.00,,,0.00,weatherlink.com 1.10,2013-03-23 10:15:00,
2013-03-23 05:30:00,26.4,19.0,30.06,NE,34,0.0,3.0,74,0.00,,,0.00,weatherlink.com 1.10,2013-03-23 10:30:00,
2013-03-23 05:45:00,26.5,19.0,30.07,NE,44,0.0,3.0,73,0.00,,,0.00,weatherlink.com 1.10,2013-03-23 10:45:00,
2013-03-23 06:00:00,25.5,19.0,30.07,ENE,66,0.0,2.0,76,0.00,,,0.00,weatherlink.com 1.10,2013-03-23 11:00:00,
2013-03-23 06:15:00,24.7,19.0,30.08,ENE,65,0.0,0.0,79,0.00,,,0.00,weatherlink.com 1.10,2013-03-23 11:15:00,
2013-03-23 06:30:00,24.2,19.0,30.08,ENE,65,0.0,0.0,79,0.00,,,0.00,weatherlink.com 1.10,2013-03-23 11:30:00,
2013-03-23 06:45:00,24.4,18.0,30.09,ENE,65,1.0,1.0,77,0.00,,,0.00,weatherlink.com 1.10,2013-03-23 11:45:00,
2013-03-23 07:02:00,24.0,18.0,30.09,ENE,65,1.0,1.0,78,0.00,,,0.00,weatherlink.com 1.10,2013-03-23 12:02:00,
2013-03-23 07:16:00,25.1,19.0,30.08,ENE,69,1.0,4.0,79,0.00,,,0.00,weatherlink.com 1.10,2013-03-23 12:16:00,
2013-03-23 07:31:00,26.5,20.0,30.09,NE,56,1.0,5.0,76,0.00,,,0.00,weatherlink.com 1.10,2013-03-23 12:31:00,
2013-03-23 07:46:00,27.5,21.0,30.09,East,88,1.0,3.0,77,0.00,,,0.00,weatherlink.com 1.10,2013-03-23 12:46:00,
2013-03-23 08:31:00,31.7,24.0,30.09,East,92,6.0,9.0,74,0.00,,,0.00,weatherlink.com 1.10,2013-03-23 13:31:00,
2013-03-23 09:31:00,35.1,25.0,30.12,East,79,7.0,13.0,68,0.00,,,0.00,weatherlink.com 1.10,2013-03-23 14:31:00,
2013-03-23 09:46:00,35.5,25.0,30.12,NE,55,4.0,11.0,66,0.00,,,0.00,weatherlink.com 1.10,2013-03-23 14:46:00,
2013-03-23 10:01:00,35.9,25.0,30.12,ENE,78,3.0,11.0,66,0.00,,,0.00,weatherlink.com 1.10,2013-03-23 15:01:00,
2013-03-23 10:16:00,36.6,25.0,30.12,East,101,6.0,13.0,64,0.00,,,0.00,weatherlink.com 1.10,2013-03-23 15:16:00,
2013-03-23 10:31:00,37.4,24.0,30.12,ENE,65,6.0,11.0,60,0.00,,,0.00,weatherlink.com 1.10,2013-03-23 15:31:00,
2013-03-23 10:46:00,38.2,25.0,30.12,ENE,68,5.0,11.0,60,0.00,,,0.00,weatherlink.com 1.10,2013-03-23 15:46:00,
2013-03-23 11:05:00,38.8,25.0,30.12,ENE,63,6.0,12.0,59,0.00,,,0.00,weatherlink.com 1.10,2013-03-23 16:05:00,
2013-03-23 11:16:00,39.2,24.0,30.11,East,84,4.0,11.0,55,0.00,,,0.00,weatherlink.com 1.10,2013-03-23 16:16:00,
2013-03-23 11:31:00,39.8,24.0,30.11,SE,130,3.0,11.0,53,0.00,,,0.00,weatherlink.com 1.10,2013-03-23 16:31:00,
2013-03-23 11:46:00,40.0,23.0,30.11,NNW,339,1.0,10.0,51,0.00,,,0.00,weatherlink.com 1.10,2013-03-23 16:46:00,
2013-03-23 12:01:00,40.2,23.0,30.11,East,99,2.0,10.0,51,0.00,,,0.00,weatherlink.com 1.10,2013-03-23 17:01:00,
2013-03-23 12:16:00,41.4,22.0,30.10,North,360,6.0,12.0,46,0.00,,,0.00,weatherlink.com 1.10,2013-03-23 17:16:00,
2013-03-23 12:31:00,41.6,23.0,30.09,East,91,9.0,10.0,47,0.00,,,0.00,weatherlink.com 1.10,2013-03-23 17:31:00,
2013-03-23 12:46:00,42.0,23.0,30.08,NW,318,2.0,11.0,47,0.00,,,0.00,weatherlink.com 1.10,2013-03-23 17:46:00,
2013-03-23 13:02:00,41.8,22.0,30.09,ENE,65,0.0,12.0,46,0.00,,,0.00,weatherlink.com 1.10,2013-03-23 18:02:00,
2013-03-23 13:17:00,43.2,23.0,30.08,East,90,2.0,11.0,45,0.00,,,0.00,weatherlink.com 1.10,2013-03-23 18:17:00,
2013-03-23 13:32:00,43.6,23.0,30.08,NNE,26,3.0,10.0,44,0.00,,,0.00,weatherlink.com 1.10,2013-03-23 18:32:00,
2013-03-23 13:47:00,43.4,23.0,30.07,NE,55,6.0,11.0,45,0.00,,,0.00,weatherlink.com 1.10,2013-03-23 18:47:00,
2013-03-23 14:02:00,44.0,23.0,30.07,NNE,22,5.0,10.0,43,0.00,,,0.00,weatherlink.com 1.10,2013-03-23 19:02:00,
2013-03-23 14:17:00,44.0,23.0,30.06,East,84,4.0,12.0,43,0.00,,,0.00,weatherlink.com 1.10,2013-03-23 19:17:00,
2013-03-23 14:32:00,44.9,23.0,30.06,ENE,76,4.0,9.0,43,0.00,,,0.00,weatherlink.com 1.10,2013-03-23 19:32:00,
2013-03-23 14:47:00,44.8,24.0,30.06,ENE,75,5.0,12.0,45,0.00,,,0.00,weatherlink.com 1.10,2013-03-23 19:47:00,
2013-03-23 15:02:00,45.4,24.0,30.05,East,82,10.0,11.0,44,0.00,,,0.00,weatherlink.com 1.10,2013-03-23 20:02:00,
2013-03-23 15:17:00,45.0,24.0,30.05,ENE,74,7.0,15.0,43,0.00,,,0.00,weatherlink.com 1.10,2013-03-23 20:17:00,
2013-03-23 15:32:00,44.5,24.0,30.05,NE,38,2.0,13.0,44,0.00,,,0.00,weatherlink.com 1.10,2013-03-23 20:32:00,
2013-03-23 15:47:00,44.9,25.0,30.04,East,99,7.0,15.0,45,0.00,,,0.00,weatherlink.com 1.10,2013-03-23 20:47:00,
2013-03-23 16:02:00,45.5,23.0,30.04,ENE,57,4.0,10.0,42,0.00,,,0.00,weatherlink.com 1.10,2013-03-23 21:02:00,
2013-03-23 16:17:00,45.1,23.0,30.03,East,90,6.0,12.0,42,0.00,,,0.00,weatherlink.com 1.10,2013-03-23 21:17:00,
2013-03-23 16:32:00,45.0,24.0,30.03,ENE,74,8.0,12.0,43,0.00,,,0.00,weatherlink.com 1.10,2013-03-23 21:32:00,
2013-03-23 16:47:00,44.5,23.0,30.02,NE,56,6.0,10.0,42,0.00,,,0.00,weatherlink.com 1.10,2013-03-23 21:47:00,
2013-03-23 17:02:00,43.9,23.0,30.02,NNE,24,4.0,14.0,43,0.00,,,0.00,weatherlink.com 1.10,2013-03-23 22:02:00,
2013-03-23 17:17:00,43.1,23.0,30.02,NE,36,2.0,15.0,46,0.00,,,0.00,weatherlink.com 1.10,2013-03-23 22:17:00,
2013-03-23 17:32:00,42.5,23.0,30.02,North,360,3.0,10.0,47,0.00,,,0.00,weatherlink.com 1.10,2013-03-23 22:32:00,
2013-03-23 17:47:00,42.0,23.0,30.01,ENE,67,11.0,12.0,48,0.00,,,0.00,weatherlink.com 1.10,2013-03-23 22:47:00,
2013-03-23 18:02:00,40.8,23.0,30.01,NNW,343,9.0,13.0,49,0.00,,,0.00,weatherlink.com 1.10,2013-03-23 23:02:00,
2013-03-23 18:17:00,39.7,23.0,30.00,North,9,4.0,13.0,52,0.00,,,0.00,weatherlink.com 1.10,2013-03-23 23:17:00,
2013-03-23 18:32:00,38.4,23.0,30.00,NE,41,5.0,13.0,55,0.00,,,0.00,weatherlink.com 1.10,2013-03-23 23:32:00,
2013-03-23 18:47:00,37.4,24.0,30.02,NNE,29,5.0,10.0,58,0.00,,,0.00,weatherlink.com 1.10,2013-03-23 23:47:00,
2013-03-23 19:02:00,36.2,24.0,30.01,ENE,72,4.0,10.0,61,0.00,,,0.00,weatherlink.com 1.10,2013-03-24 00:02:00,
2013-03-23 19:17:00,35.3,24.0,30.01,North,355,11.0,11.0,63,0.00,,,0.00,weatherlink.com 1.10,2013-03-24 00:17:00,
2013-03-23 19:32:00,34.6,23.0,30.02,NE,45,3.0,12.0,64,0.00,,,0.00,weatherlink.com 1.10,2013-03-24 00:32:00,
2013-03-23 19:47:00,34.0,24.0,30.01,NNE,30,2.0,9.0,66,0.00,,,0.00,weatherlink.com 1.10,2013-03-24 00:47:00,
2013-03-23 20:02:00,33.4,23.0,30.01,NNE,33,5.0,9.0,66,0.00,,,0.00,weatherlink.com 1.10,2013-03-24 01:02:00,
2013-03-23 20:17:00,33.0,23.0,30.01,NE,46,3.0,10.0,66,0.00,,,0.00,weatherlink.com 1.10,2013-03-24 01:17:00,
2013-03-23 20:32:00,32.5,23.0,30.01,ENE,74,5.0,13.0,67,0.00,,,0.00,weatherlink.com 1.10,2013-03-24 01:32:00,
2013-03-23 20:47:00,32.0,22.0,30.01,NE,49,2.0,10.0,68,0.00,,,0.00,weatherlink.com 1.10,2013-03-24 01:47:00,
2013-03-23 21:02:00,31.5,22.0,30.01,NE,39,10.0,10.0,69,0.00,,,0.00,weatherlink.com 1.10,2013-03-24 02:02:00,
2013-03-23 21:17:00,31.3,23.0,30.01,NE,39,7.0,10.0,70,0.00,,,0.00,weatherlink.com 1.10,2013-03-24 02:17:00,
2013-03-23 21:32:00,31.0,23.0,30.01,ENE,57,3.0,7.0,71,0.00,,,0.00,weatherlink.com 1.10,2013-03-24 02:32:00,
2013-03-23 21:47:00,30.8,23.0,30.01,NE,47,3.0,10.0,72,0.00,,,0.00,weatherlink.com 1.10,2013-03-24 02:47:00,
2013-03-23 22:02:00,30.3,23.0,29.99,NE,51,2.0,9.0,74,0.00,,,0.00,weatherlink.com 1.10,2013-03-24 03:02:00,
2013-03-23 22:17:00,30.2,24.0,29.99,NNE,13,5.0,10.0,77,0.00,,,0.00,weatherlink.com 1.10,2013-03-24 03:17:00,
2013-03-23 22:32:00,30.0,24.0,29.99,North,355,5.0,9.0,78,0.00,,,0.00,weatherlink.com 1.10,2013-03-24 03:32:00,
2013-03-23 22:47:00,29.9,24.0,30.00,NNE,18,0.0,8.0,78,0.00,,,0.00,weatherlink.com 1.10,2013-03-24 03:47:00,
2013-03-23 23:17:00,29.3,24.0,30.00,NE,44,2.0,8.0,80,0.00,,,0.00,weatherlink.com 1.10,2013-03-24 04:17:00,
2013-03-23 23:32:00,29.4,24.0,30.00,NE,46,1.0,5.0,80,0.00,,,0.00,weatherlink.com 1.10,2013-03-24 04:32:00,
2013-03-23 23:47:00,29.7,24.0,30.00,ENE,67,3.0,9.0,80,0.00,,,0.00,weatherlink.com 1.10,2013-03-24 04:47:00,